Simultaneous Nadir Overpasses (SNOs) Predictions

Prediction of SNOs between GOES-15 and METOP-B Satellite Orbit:

Table of predicted SNOs for the next 14.0 days since TLE Epoch: 3/21/2025
Index Date Time (GOES-15) GOES-15 Lat,Lon METOP-B Lat,Lon Distance(km) Time Diff (sec)
1 03/22/2025 16:50:30 0.06, 61.26 0.82, 64.58 378.22 80
2 03/24/2025 05:09:25 -0.07, 61.30 0.19, 59.98 150.32 80
3 03/25/2025 04:51:27 -0.07, 61.31 -0.86, 64.97 416.56 80
4 03/26/2025 17:10:31 0.08, 61.28 -0.11, 60.32 107.73 80
5 03/27/2025 16:47:13 0.07, 61.28 0.95, 65.31 458.74 80
6 03/29/2025 05:06:08 -0.08, 61.33 0.03, 60.71 70.45 80
7 03/30/2025 04:48:09 -0.07, 61.34 -1.03, 65.70 496.16 80
8 03/31/2025 17:07:13 0.09, 61.32 0.03, 61.07 28.44 80
9 04/03/2025 05:05:29 -0.10, 61.40 -0.09, 61.46 6.70 80
